Location: Newark
(48.2500°N, 10.3333°E)
Time: 21:38:37
(UTC+00:00)

Envisat - Visible Passes

Search period start: 09 December 2019 00:00
Search period end: 19 December 2019 00:00
Orbit: 764 x 766 km, 98.1° (Epoch: 09 December)

Date Brightness Start Highest point End Pass type
(mag) Time Alt. Az. Time Alt. Az. Time Alt. Az.
09 Dec 5.3 05:18:24 10° NE 05:22:41 27° E 05:26:57 10° SSE visible
09 Dec 3.1 16:36:16 10° SE 16:41:09 50° ENE 16:46:04 10° N visible
09 Dec 5.2 18:16:20 10° SSW 18:20:26 24° W 18:24:35 10° NW visible
10 Dec 6.1 04:43:09 10° ENE 04:45:28 13° E 04:47:47 10° ESE visible
10 Dec 3.1 06:20:07 10° NNE 06:25:14 89° ESE 06:30:19 10° SSW visible
10 Dec 3.9 16:00:29 10° ESE 16:04:38 26° ENE 16:08:48 10° N visible
10 Dec 3.9 17:38:29 10° S 17:43:25 49° W 17:48:22 10° NNW visible
11 Dec 4.3 05:43:30 10° NNE 05:48:22 44° E 05:53:12 10° S visible
11 Dec 2.9 17:01:29 10° SSE 17:06:34 82° ENE 17:11:41 10° NNW visible
11 Dec 5.9 18:43:26 10° WSW 18:46:15 15° W 18:49:04 10° NW visible
12 Dec 5.6 05:07:24 10° NE 05:11:18 22° E 05:15:11 10° SE visible
12 Dec 3.4 16:25:12 10° SE 16:29:56 41° ENE 16:34:41 10° N visible
12 Dec 4.9 18:04:38 10° SSW 18:09:03 30° W 18:13:31 10° NNW visible
13 Dec 6.4 04:33:29 10° ENE 04:34:01 10° E 04:34:32 10° E visible
13 Dec 3.3 06:08:50 10° NNE 06:13:57 73° ESE 06:19:01 10° S visible
13 Dec 3.5 17:27:04 10° S 17:32:05 61° W 17:37:08 10° NNW visible
14 Dec 4.7 05:32:20 10° NNE 05:37:01 35° E 05:41:40 10° SSE visible
14 Dec 2.9 16:50:17 10° SSE 16:55:18 67° ENE 17:00:22 10° N visible
14 Dec 5.6 18:31:21 10° SW 18:34:49 18° W 18:38:19 10° NW visible
15 Dec 5.9 04:56:29 10° NE 04:59:54 18° E 05:03:16 10° SE visible
15 Dec 3.6 16:14:11 10° SE 16:18:43 34° ENE 16:23:16 10° N visible
15 Dec 4.5 17:53:01 10° SSW 17:57:41 37° W 18:02:25 10° NNW visible
16 Dec 3.7 05:57:36 10° NNE 06:02:38 59° E 06:07:38 10° S visible
16 Dec 3.1 17:15:42 10° S 17:20:47 76° WSW 17:25:54 10° NNW visible
16 Dec 6.2 18:59:36 10° W 19:00:41 11° W 19:01:46 10° WNW visible
17 Dec 5.1 05:21:14 10° NE 05:25:39 29° E 05:30:02 10° SSE visible
17 Dec 3.1 16:39:08 10° SE 16:44:04 54° ENE 16:49:01 10° N visible
17 Dec 5.3 18:19:27 10° SW 18:23:25 23° W 18:27:23 10° NW visible
18 Dec 6.0 04:45:46 10° NE 04:48:28 14° E 04:51:09 10° ESE visible
18 Dec 3.0 06:23:02 10° NNE 06:28:10 84° WNW 06:33:15 10° SSW visible
18 Dec 3.8 16:03:16 10° ESE 16:07:32 28° ENE 16:11:49 10° N visible
18 Dec 4.1 17:41:30 10° S 17:46:21 45° W 17:51:15 10° NNW visible
